Location: Unspecified
(0.0000°N, 0.0000°E)
Time: 14:25:10
(UTC+00:00)

Courier 1B - Pass Details

Date: 16 February 2026
Orbit: 962 x 1208 km, 28.3° (Epoch: 16 March)

Event Time Altitude Azimuth Distance (km) Brightness Sun altitude
Rises 18:40:19 0° 276° (W) 3,809 12.3 -6.4°
Reaches altitude 10° 18:43:51 10° 293° (WNW) 2,901 10.9 -7.3°
Maximum altitude 18:48:45 19° 336° (NNW) 2,336 9.6 -8.5°
Drops below altitude 10° 18:53:50 10° 20° (NNE) 3,024 9.8 -9.7°
Enters shadow 18:57:14 - 35° (NE) 3,903 10.2 -10.6°
